www.pogodaiklimat.ru

Погода и климат >> Архив погоды >> Россия >> Белгородская область >> Валуйки


АРХИВ ПОГОДЫ в Валуйках

Время (UTC), дата Ветер
(напр.,м/с)
 
Видим.   Явления Облачность Т
(С)
Тd
(С)
f
(%)
Тe
(С)
Тes
(С)
Комфортность P
(гПа)
Po
(гПа)
Тmin
(С)
Tmax
(С)
R
(мм)
R24
(мм)
S
(см)
00 15.09 СЗ 2 10 км ясно +8.4 +7.1 92 +6 +6 1021.2 1007.4
03 15.09 СЗ 2 10 км ясно +6.0 +4.9 93 +3 +3 1021.8 1007.9 +5.8 0.9
06 15.09 СЗ 1 20 км 3/0
[Ci fib]
+10.5 +5.8 73 +10 +14 1022.1 1008.4 +5.8
09 15.09 СЗ 3 20 км 3/3 1000 м
[Cu hum]
+17.8 +3.8 39 +18 +23 1021.3 1008.0
12 15.09 СЗ 2 20 км 6/4 600 м
[Cb cap Ci fib]
+18.5 +3.6 37 +19 +23 1020.0 1006.7
15 15.09 З 2 20 км 3/0
[Ci fib]
+18.3 +4.5 40 +19 +19 1018.7 1005.4
18 15.09 СВ 1 10 км 3/0
[Ci fib]
+10.8 +5.1 68 +11 +11 1018.9 1005.3 +19.7
21 15.09 СВ 1 10 км ясно +8.1 +4.1 76 +7 +7 1018.0 1004.3
00 16.09 В 1 10 км ясно +6.7 +3.9 82 +6 +6 1016.5 1002.7
03 16.09 В 1 10 км 1/0
[Ci fib]
+6.9 +3.1 77 +6 +6 1014.4 1000.6 +5.7
06 16.09 ЮЗ 3 20 км 3/0
[Ci fib]
+15.5 +2.7 42 +15 +18 1012.6 999.3 +5.7
09 16.09 З 5-11
{13}
20 км 3/0
[Ci fib]
+22.6 +3.0 28 +22 +27 комфорт 1010.6 997.6
12 16.09 З 5-10
{13}
20 км 3/0
[Ac trans]
+25.1 +3.0 24 +24 +27 комфорт 1007.8 995.0
15 16.09 З 3
{10}
20 км 8/0
[Ac trans]
+23.6 +4.8 30 +23 +24 комфорт 1006.6 993.7
18 16.09 СЗ 1 10 км 10/0
[Ac As]
+20.3 +8.9 48 +23 +23 комфорт 1006.6 993.6 +25.5
21 16.09 СВ 1 10 км 8/0
[Ac trans]
+15.1 +9.3 68 +16 +16 1006.8 993.6
00 17.09 С 1 10 км 9/0
[Ac trans]
+14.9 +9.5 70 +15 +15 1005.9 992.7
03 17.09 СВ 1 10 км 10/0
[Ac As]
+13.1 +10.6 85 +13 +13 1005.5 992.2 +12.7
06 17.09 СЗ 1 20 км 8/0
[Ci fib]
+16.8 +8.1 56 +18 +21 1005.4 992.2 +11.7
09 17.09 З 4 20 км 9/0
[Ac trans]
+17.4 +5.9 47 +17 +20 1005.7 992.6
12 17.09 З 4 20 км 9/0
[Ac trans]
+18.0 +4.1 40 +18 +20 1005.4 992.3
15 17.09 З 2 20 км 3/0
[Ci fib]
+18.0 +2.9 36 +19 +19 1005.1 992.0
18 17.09 СВ 1 10 км 3/0
[Ac trans]
+9.9 +3.8 66 +10 +10 1006.9 993.4 +19.2
21 17.09 штиль 0 10 км 4/0
[Ac trans]
+8.5 +4.6 76 +8 +8 1007.3 993.7
00 18.09 штиль 0 10 км 8/0
[Ac trans]
+7.5 +4.3 80 +7 +7 1007.3 993.7
03 18.09 В 1 10 км 3/0
[Ac trans]
+6.8 +5.2 90 +6 +6 1006.6 992.9 +6.2
06 18.09 Ю 2 10 км 8/0
[Ac trans Ci fib]
+10.6 +7.3 80 +9 +11 1003.2 989.8 +6.2
09 18.09 ЮЗ 3 10 км слаб. ливневой дождь 9/4 600 м
[Cb cap Ac trans]
+12.7 +9.8 83 +11 +13 1003.3 990.1
12 18.09 ЮЗ 5-10
{11}
20 км {ливн. осадки} 8/4 600 м
[Cb cap Ac trans]
+16.1 +6.7 54 +15 +16 1000.7 987.6
15 18.09 З 4
{14}
20 км {ливн. осадки} 3/0
[Ac trans]
+13.8 +4.0 52 +13 +13 1001.4 988.2 2
18 18.09 З 3
{11}
10 км {ливн. осадки} ясно +10.3 +2.1 57 +9 +9 1004.8 991.3 +17.1 2
21 18.09 З 3 10 км ясно +8.6 +2.5 65 +6 +6 1006.4 992.8
00 19.09 З 3
{10}
10 км 4/0
[Ac trans]
+8.2 +3.8 74 +6 +6 1008.2 994.6
03 19.09 З 3 10 км 8/0
[Ac trans]
+7.4 +4.0 79 +5 +5 1010.7 997.0 +6.8
06 19.09 З 2 20 км 10/0
[Ac As]
+9.7 +5.6 76 +8 +9 1014.0 1000.4 +6.8
09 19.09 З 3 20 км 10/3 600 м
[Cb cap Ac As]
+11.5 +5.8 68 +10 +11 1015.3 1001.8
12 19.09 З 3 20 км 9/3 600 м
[Cb cap Ac trans]
+15.0 +3.4 46 +14 +16 1015.2 1001.8
15 19.09 З 2 20 км 8/0
[Ac trans]
+13.5 +4.3 54 +13 +13 1015.3 1001.9
18 19.09 СЗ 1 10 км 6/0
[Ac trans]
+11.3 +3.6 59 +11 +11 1016.6 1003.1 +15.2
21 19.09 штиль 0 10 км 3/0
[Ac trans]
+5.5 +4.1 91 +4 +4 1016.8 1003.0
00 20.09 штиль 0 10 км 3/0
[Ac trans]
+3.7 +3.0 95 +3 +3 1017.2 1003.3
03 20.09 штиль 0 10 км 1/0
[Ci fib]
+2.5 +1.7 94 +1 +1 1017.1 1003.1 +2.2
06 20.09 штиль 0 20 км 3/0
[Ac trans]
+9.1 +5.1 76 +8 +12 1016.9 1003.3 +2.2
09 20.09 З 2 20 км 9/3 600 м
[Cb cap Ac trans]
+13.9 +5.1 55 +14 +16 1016.1 1002.7
12 20.09 З 2 20 км 8/3 600 м
[Cb cap Ac trans]
+14.5 +3.8 49 +14 +17 1015.3 1001.9
15 20.09 З 1 20 км 8/3 600 м
[Cb cap Ac trans]
+14.6 +1.9 42 +15 +15 1014.9 1001.5
18 20.09 СЗ 1 10 км 8/0
[Ac trans]
+9.9 +2.7 61 +10 +10 1014.6 1001.0 +15.0
21 20.09 С 1 10 км 8/0
[Ac trans]
+7.5 +4.3 80 +7 +7 1014.8 1001.1
00 21.09 В 4 10 км 6/0
[Ac trans]
+7.1 +4.3 82 +4 +4 1014.7 1000.9
03 21.09 З 1 10 км 9/0
[Ac trans]
+5.4 +3.5 88 +4 +4 1014.9 1001.1 +5.0
06 21.09 З 2 20 км в посл. час ливневой дождь 10/3 600 м
[Cb cap Ac As]
+7.4 +5.6 88 +5 +6 1015.5 1001.8 +4.7 0.5
09 21.09 СЗ 2 20 км 9/0
[Ac trans]
+10.8 +3.6 61 +10 +14 1016.1 1002.5
12 21.09 СЗ 4 20 км 9/3 600 м
[Cb cap Ac trans Ci fib]
+11.5 +3.6 58 +10 +11 1015.6 1002.1
15 21.09 СЗ 2 20 км 4/0
[Ac trans]
+11.6 +2.3 53 +11 +11 1015.5 1002.0 0.5
18 21.09 С 1 10 км 3/0
[Ac trans]
+5.1 +1.6 78 +4 +4 1017.6 1003.7 +13.5 0.5
21 21.09 штиль 0 10 км ясно +2.9 +0.5 84 +2 +2 1017.4 1003.4

 

Местоположение метеостанции Валуйки (Белгородская область, Россия): широта 50.22 долгота 38.10 высота над уровнем моря 112 м.

В архиве по умолчанию представлена погода в Валуйках за последнюю неделю. Архивные данные за месяц целиком и за предыдущие месяцы, начиная с января 2011 года, Вы можете получить, выбрав интересующий диапазон дат из раскрывающегося списка и нажав кнопку "Ввод!".


*Определитесь, кто Вы:
робот инопланетянин человек

Внимание! Время в таблицах - всемирное. Для получения местного времени необходимо прибавить поправку, которая равна 3 ч.

Смотрите также архив погоды в соседних городах и на ближайших метеорологических станциях:

Погода в Новопскове (Луганская область, Украина) (25 км)
Погода в Троицком (Луганская область, Украина) (35 км)
Погода в Великом Бурлуке (Харьковская область, Украина) (54 км)
Погода в Новом Осколе (Белгородская область, Россия) (61 км)
Погода в Купянске (Харьковская область, Украина) (72 км)
Погода в Сватово (Луганская область, Украина) (89 км)
Погода в Белгороде (Белгородская область, Россия) (117 км)
Погода в Богородицком (Белгородская область, Россия) (118 км)
Погода в Старом Осколе (Белгородская область, Россия) (121 км)
Погода в Изюме (Харьковская область, Украина) (129 км)

Пояснения к столбцам:

Ветер - указаны скорость ветра в м/с - средняя за 10 мин, порывы в срок и между сроками (в фигурных скобках) и направление, откуда дует ветер: С - северный, СВ - северо-восточный, В - восточный, ЮВ - юго-восточный, Ю - южный, ЮЗ - юго-западный, З - западный, СЗ - северо-западный.
Видимость - горизонтальная дальность видимости в метрах или километрах. При видимости от 1 до 10 км при отсутствии осадков обычно наблюдается дымка, при ухудшении видимости до 1 км и менее - туман. В сухую погоду видимость может ухудшаться дымом, пылью или мглою.
Явления - указаны атмосферные явления, наблюдавшиеся в срок или в последний час перед сроком; фигурными скобками обозначены явления, наблюдавшиеся между сроками (за 1-3 часа до срока); квадратными скобками обозначены град или гололедные отложения с указанием их диаметра в мм.
Облачность - указаны через наклонную черту общая и нижняя облачность в баллах и высота нижней границы облаков в метрах; квадратными скобками обозначены формы облаков: Ci - перистые, Cs - перисто-слоистые, Cc - перисто-кучевые, Ac - высококучевые, As - высокослоистые, Sc - слоисто-кучевые, Ns - слоисто-дождевые, Cu - кучевые, Cb - кучево-дождевые. Подробнее классификацию облаков см. в Атласе облаков (PDF).
T - Температура воздуха - температура, измеренная на высоте 2 м над землей.
Td - Температура точки росы - температура, при понижении до которой содержащийся в воздухе водяной пар достигнет насыщения.
f - Относительная влажность воздуха - влажноcть воздуха, измеренная на высоте 2 м над землей.
Te - Эффективная температура - температура, которую ощущает одетый по сезону человек в тени. Характеристика душности погоды. При расчете учитывается влияние влажности воздуха и скорости ветра на теплоощущения человека.
Tes - Эффективная температура на солнце - температура, которую ощущает человек, с поправкой на солнечный нагрев. Характеристика знойности погоды. Зависит от высоты солнца над горизонтом, облачности и скорости ветра. Ночью, в пасмурную погоду, а также при ветре 12 м/с и более поправка равна нулю.
P - Атмосферное давление - приведенное к уровню моря атмосферное давление.
Po - Атмосферное давление - измеренное на уровне метеостанции атмосферное давление.
Tmin - Минимальная температура - минимум температуры воздуха на высоте 2 м над землей.
Tmax - Максимальная температура - максимум температуры воздуха на высоте 2 м над землей.
R - Количество осадков - Количество выпавших осадков за период времени, мм. При наведении курсора мыши на число - период времени, за который выпало указанное количество осадков.
R24 - Количество осадков - Количество выпавших осадков за 24 часа, мм.
S - Снежный покров - Высота снежного покрова, см. При наведении курсора мыши на число - состояние снежного покрова и степень покрытия местности в баллах.